Overview Statistics Trail Chart Weather Telemetry Raw packets
 

This is the latest recevied weather packets stored in our database for station/object W5DNT. If no packets are shown the sender has not sent any weather packets the latest 10 day(s).

<< 17 18 19 20 21 22 23 >>
Time Temp. Humidity Pressure Rain* Wind** Luminosity Snow
1788230805 30° C 45% 1013 hPa 0 mm - - -
1788229843 30° C 46% 1012.7 hPa 0 mm - - -
1788228943 30.56° C 44% 1012.6 hPa 0 mm - - -
1788228044 31.11° C 42% 1012.4 hPa 0 mm - - -
1788227142 31.67° C 41% 1012.3 hPa 0 mm - - -
1788226242 32.22° C 41% 1012.2 hPa 0 mm - - -
1788225342 32.78° C 40% 1012.2 hPa 0 mm - - -
1788224452 33.33° C 39% 1012.1 hPa 0 mm - - -
1788223541 33.89° C 39% 1012 hPa 0 mm - - -
1788222641 33.89° C 38% 1012 hPa 0 mm - - -
1788221739 34.44° C 38% 1011.9 hPa 0 mm - - -
1788220841 34.44° C 38% 1011.9 hPa 0 mm - - -
1788219938 34.44° C 39% 1011.9 hPa 0 mm - - -
1788219043 34.44° C 38% 1011.9 hPa 0 mm - - -
1788218138 35° C 37% 1011.9 hPa 0 mm - - -
1788217236 35.56° C 36% 1012 hPa 0 mm - - -
1788216336 35.56° C 36% 1012 hPa 0 mm - - -
1788215435 35.56° C 37% 1012 hPa 0 mm - - -
1788214538 35° C 37% 1012 hPa 0 mm - - -
1788213632 35.56° C 37% 1012.1 hPa 0 mm - - -
1788212732 35.56° C 36% 1012.3 hPa 0 mm - - -
1788211830 36.67° C 34% 1012.3 hPa 0 mm - - -
1788210933 36.67° C 35% 1012.3 hPa 0 mm - - -
1788210026 36.67° C 35% 1012.6 hPa 0 mm - - -
1788209125 36.67° C 36% 1012.9 hPa 0 mm - - -

* Rain latest hour (hover to see other rain measurements)
** Current wind speed in m/s (hover to see current wind gust speed)